Weather in Dhaka

Bangladesh     23˚46′00″N   90˚22′51″E
temp.,
°C
wind,
m/s
gust,
m/s
humid.,
%
clouds,
%
prec.,
mm/h
press.,
hPa
HPBL,
m
28 november, sat
sat2800:00+22˚nnw466467 0.0 1015234
03:00+21˚nnw237272 0.0 1014137
06:00+20˚n237152 0.0 1015126
09:00+24˚nw22530 0.0 1017383
12:00+28˚nnw22365 0.0 1015679
15:00+29˚nnw333248 0.0 1012820
18:00+26˚nnw344124 0.0 1012304
21:00+24˚nnw46500 0.0 1014208
29 november, sun
sun2900:00+22˚nnw46570 0.0 1014174
03:00+21˚nnw36560 0.0 1013207
06:00+20˚n34610 0.0 1014155
09:00+24˚n22550 0.0 1016287
12:00+29˚nnw32390 0.0 1014812
15:00+30˚nnw32330 0.0 10111144
18:00+26˚nw35440 0.0 1012282
21:00+24˚nw35500 0.0 1013166
30 november, mon
mon3000:00+22˚nnw34590 0.0 1013145
03:00+21˚nne12640 0.0 101297
06:00+21˚nw11650 0.0 101377
09:00+24˚n11540 0.0 1016375
12:00+29˚nw11390 0.0 1014808
15:00+30˚wnw11310 0.0 10111441
18:00+27˚wnw34380 0.0 1012270
21:00+25˚nnw11400 0.0 101469
1 december, tue
tue100:00+24˚nnw11430 0.0 101452
03:00+22˚nne12470 0.0 101470
06:00+21˚ene11530 0.0 101569
09:00+25˚ene22460 0.0 1017321
12:00+29˚se01320 0.0 10151297
15:00+30˚w12240 0.0 10121801
18:00+27˚wnw23320 0.0 1012229
21:00+25˚nw11370 0.0 101368
2 december, wed
wed200:00+23˚nne12440 0.0 101373
03:00+22˚nne11500 0.0 101384
06:00+21˚se12520 0.0 101373
09:00+25˚sse11420 0.0 1015348
12:00+28˚w12340 0.0 10131392
15:00+29˚wnw33300 0.0 10101861
18:00+26˚nw23380 0.0 1010465
21:00+24˚n23450 0.0 1012136